Terug naar catalogus

CZ-2C DEB

ActiefPO
NORAD 37770·DEBRIS·🇨🇳 China

Gelanceerd Jul 29, 2011 vanaf Jiuquan Satellite Launch Center

Loading…

Volgende Passages (komende 24 uur)

TLE

VersSource: Space-Track

Epoch: Sep 14, 2026, 18:28 UTC

1 37770U 11039F   26257.76979681  .00041481  00000-0  18365-2 0  9996
2 37770  97.9195 196.6488 0029096  57.0988 321.0040 15.21142128807160

Volg CZ-2C DEB in realtime met AllMySat

Download on the App Store